Location: Newark
(51.5033°N, 0.1199°W)
Time: 14:10:19
(UTC+00:00)

PicSat - Pass Details

Date: 18 September 2019
Orbit: 486 x 499 km, 97.5° (Epoch: 15 October)

Event Time Altitude Azimuth Distance (km) Brightness Sun altitude
Exits shadow 22:13:54 16° 321° (NW) 1,379 ? -32.7°
Drops below altitude 10° 22:14:50 10° 329° (NNW) 1,714 ? -32.7°
Sets 22:17:05 0° 339° (NNW) 2,604 ? -32.9°
